{"data":{"norad_id":64207,"epoch":"2026-09-20T06:32:12.942528Z","epoch_age_seconds":160018,"freshness":"FRESH","line1":"1 64207U 25117E   26263.27237202  .00018974  00000+0  57121-3 0  9996","line2":"2 64207  53.1586 214.6192 0001248  88.3336 271.7809 15.34403284 73301","mean_motion":15.34403284,"eccentricity":0.0001248,"inclination_deg":53.1586,"raan_deg":214.6192,"arg_perigee_deg":88.3336,"mean_anomaly_deg":271.7809,"bstar":0.00057121,"rev_number":7330,"period_min":93.847557224076,"perigee_km":461.8397438406,"apogee_km":463.54721512828,"semimajor_km":6840.8304794844,"source":"CELESTRAK","updated_at":"2026-09-21T09:00:35.270771Z"}}